Time,TemperatureF,DewpointF,PressureIn,WindDirection,WindDirectionDegrees,WindSpeedMPH,WindSpeedGustMPH,Humidity,HourlyPrecipIn,Conditions,Clouds,dailyrainin,SoftwareType,DateUTC
2013-03-04 00:09:00,54.5,45.0,30.18,NNE,12,0.0,-999.0,70,-99.99,,,0.05,weatherlink.com 1.10,2013-03-04 05:09:00,
2013-03-04 00:24:00,53.6,46.0,30.18,ENE,71,2.0,-999.0,74,-99.99,,,0.05,weatherlink.com 1.10,2013-03-04 05:24:00,
2013-03-04 00:39:00,51.9,45.0,30.18,NNE,28,4.0,-999.0,77,-99.99,,,0.05,weatherlink.com 1.10,2013-03-04 05:39:00,
2013-03-04 00:54:00,50.2,44.0,30.18,NE,39,0.0,-999.0,80,-99.99,,,0.05,weatherlink.com 1.10,2013-03-04 05:54:00,
2013-03-04 01:09:00,48.9,43.0,30.18,NNE,17,0.0,-999.0,81,-99.99,,,0.05,weatherlink.com 1.10,2013-03-04 06:09:00,
2013-03-04 01:24:00,48.1,43.0,30.18,NE,38,1.0,-999.0,82,-99.99,,,0.05,weatherlink.com 1.10,2013-03-04 06:24:00,
2013-03-04 01:39:00,47.4,43.0,30.18,NE,56,4.0,-999.0,83,-99.99,,,0.05,weatherlink.com 1.10,2013-03-04 06:39:00,
2013-03-04 01:54:00,46.7,42.0,30.17,East,87,3.0,-999.0,83,-99.99,,,0.05,weatherlink.com 1.10,2013-03-04 06:54:00,
2013-03-04 02:09:00,46.1,41.0,30.18,NE,55,0.0,-999.0,83,-99.99,,,0.05,weatherlink.com 1.10,2013-03-04 07:09:00,
2013-03-04 02:24:00,45.7,41.0,30.18,ENE,65,1.0,-999.0,84,-99.99,,,0.05,weatherlink.com 1.10,2013-03-04 07:24:00,
2013-03-04 02:39:00,45.4,41.0,30.18,ENE,67,0.0,-999.0,85,-99.99,,,0.05,weatherlink.com 1.10,2013-03-04 07:39:00,
2013-03-04 02:54:00,45.0,41.0,30.18,ENE,73,2.0,-999.0,85,-99.99,,,0.05,weatherlink.com 1.10,2013-03-04 07:54:00,
2013-03-04 03:09:00,44.6,41.0,30.18,ENE,75,1.0,-999.0,86,-99.99,,,0.05,weatherlink.com 1.10,2013-03-04 08:09:00,
2013-03-04 03:24:00,44.2,41.0,30.18,ENE,75,0.0,-999.0,87,-99.99,,,0.05,weatherlink.com 1.10,2013-03-04 08:24:00,
2013-03-04 03:39:00,43.9,40.0,30.18,ENE,74,0.0,-999.0,87,-99.99,,,0.05,weatherlink.com 1.10,2013-03-04 08:39:00,
2013-03-04 03:54:00,43.6,40.0,30.19,ENE,74,4.0,-999.0,87,-99.99,,,0.05,weatherlink.com 1.10,2013-03-04 08:54:00,
2013-03-04 04:10:00,43.4,40.0,30.20,ENE,73,0.0,-999.0,87,-99.99,,,0.05,weatherlink.com 1.10,2013-03-04 09:10:00,
2013-03-04 04:25:00,43.2,40.0,30.20,ENE,72,0.0,-999.0,87,-99.99,,,0.05,weatherlink.com 1.10,2013-03-04 09:25:00,
2013-03-04 04:40:00,43.6,41.0,30.20,ENE,72,0.0,-999.0,89,-99.99,,,0.00,weatherlink.com 1.10,2013-03-04 09:40:00,
2013-03-04 04:55:00,43.6,40.0,30.21,ENE,72,0.0,-999.0,88,-99.99,,,0.00,weatherlink.com 1.10,2013-03-04 09:55:00,
2013-03-04 05:10:00,43.5,41.0,30.20,ENE,72,0.0,-999.0,89,-99.99,,,0.00,weatherlink.com 1.10,2013-03-04 10:10:00,
2013-03-04 05:25:00,42.9,40.0,30.21,ENE,73,0.0,-999.0,88,-99.99,,,0.00,weatherlink.com 1.10,2013-03-04 10:25:00,
2013-03-04 05:40:00,42.3,39.0,30.21,ENE,73,0.0,-999.0,89,-99.99,,,0.00,weatherlink.com 1.10,2013-03-04 10:40:00,
2013-03-04 05:55:00,41.9,39.0,30.21,ENE,74,0.0,-999.0,89,-99.99,,,0.00,weatherlink.com 1.10,2013-03-04 10:55:00,
2013-03-04 06:10:00,41.7,39.0,30.22,ENE,74,0.0,-999.0,89,-99.99,,,0.00,weatherlink.com 1.10,2013-03-04 11:10:00,
2013-03-04 06:25:00,41.5,39.0,30.22,ENE,74,0.0,-999.0,90,-99.99,,,0.00,weatherlink.com 1.10,2013-03-04 11:25:00,
2013-03-04 06:40:00,41.2,39.0,30.23,ENE,74,0.0,-999.0,90,-99.99,,,0.00,weatherlink.com 1.10,2013-03-04 11:40:00,
2013-03-04 06:55:00,40.9,38.0,30.22,ENE,74,0.0,-999.0,89,-99.99,,,0.00,weatherlink.com 1.10,2013-03-04 11:55:00,
2013-03-04 07:10:00,40.9,38.0,30.23,ENE,74,0.0,-999.0,90,-99.99,,,0.00,weatherlink.com 1.10,2013-03-04 12:10:00,
2013-03-04 07:25:00,41.2,39.0,30.23,ENE,74,0.0,-999.0,91,-99.99,,,0.00,weatherlink.com 1.10,2013-03-04 12:25:00,
2013-03-04 07:40:00,42.0,39.0,30.23,ENE,74,0.0,-999.0,90,-99.99,,,0.00,weatherlink.com 1.10,2013-03-04 12:40:00,
2013-03-04 07:55:00,43.4,40.0,30.24,NE,42,4.0,-999.0,87,-99.99,,,0.00,weatherlink.com 1.10,2013-03-04 12:55:00,
2013-03-04 08:10:00,45.6,41.0,30.24,NE,34,0.0,-999.0,83,-99.99,,,0.00,weatherlink.com 1.10,2013-03-04 13:10:00,
2013-03-04 08:25:00,47.6,41.0,30.25,ENE,76,0.0,-999.0,79,-99.99,,,0.00,weatherlink.com 1.10,2013-03-04 13:25:00,
2013-03-04 08:40:00,49.5,42.0,30.25,NE,47,0.0,-999.0,76,-99.99,,,0.00,weatherlink.com 1.10,2013-03-04 13:40:00,
2013-03-04 08:55:00,51.3,44.0,30.25,ENE,65,3.0,-999.0,75,-99.99,,,0.00,weatherlink.com 1.10,2013-03-04 13:55:00,
2013-03-04 09:10:00,53.0,44.0,30.25,NNE,28,1.0,-999.0,71,-99.99,,,0.00,weatherlink.com 1.10,2013-03-04 14:10:00,
2013-03-04 09:25:00,53.7,44.0,30.26,NNE,19,7.0,-999.0,69,-99.99,,,0.00,weatherlink.com 1.10,2013-03-04 14:25:00,
2013-03-04 09:40:00,54.9,45.0,30.25,NE,42,3.0,-999.0,69,-99.99,,,0.00,weatherlink.com 1.10,2013-03-04 14:40:00,
2013-03-04 09:55:00,56.1,46.0,30.26,NE,51,1.0,-999.0,68,-99.99,,,0.00,weatherlink.com 1.10,2013-03-04 14:55:00,
2013-03-04 10:11:00,58.3,47.0,30.25,ENE,73,4.0,-999.0,66,-99.99,,,0.00,weatherlink.com 1.10,2013-03-04 15:11:00,
2013-03-04 10:26:00,59.1,48.0,30.24,NNE,31,0.0,-999.0,66,-99.99,,,0.00,weatherlink.com 1.10,2013-03-04 15:26:00,
2013-03-04 10:41:00,60.3,47.0,30.25,NE,51,8.0,-999.0,63,-99.99,,,0.00,weatherlink.com 1.10,2013-03-04 15:41:00,
2013-03-04 10:56:00,62.0,50.0,30.24,NE,49,1.0,-999.0,64,-99.99,,,0.00,weatherlink.com 1.10,2013-03-04 15:56:00,
2013-03-04 11:11:00,63.0,48.0,30.24,ENE,62,6.0,-999.0,59,-99.99,,,0.00,weatherlink.com 1.10,2013-03-04 16:11:00,
2013-03-04 11:26:00,63.5,48.0,30.23,NNE,30,0.0,-999.0,57,-99.99,,,0.00,weatherlink.com 1.10,2013-03-04 16:26:00,
2013-03-04 11:41:00,64.2,47.0,30.23,NNW,342,0.0,-999.0,54,-99.99,,,0.00,weatherlink.com 1.10,2013-03-04 16:41:00,
2013-03-04 11:56:00,65.3,48.0,30.23,ENE,62,0.0,-999.0,54,-99.99,,,0.00,weatherlink.com 1.10,2013-03-04 16:56:00,
2013-03-04 12:11:00,66.9,50.0,30.22,ENE,71,3.0,-999.0,54,-99.99,,,0.00,weatherlink.com 1.10,2013-03-04 17:11:00,
2013-03-04 12:26:00,67.4,47.0,30.21,ESE,109,0.0,-999.0,48,-99.99,,,0.00,weatherlink.com 1.10,2013-03-04 17:26:00,
2013-03-04 12:41:00,67.6,44.0,30.21,North,11,0.0,-999.0,43,-99.99,,,0.00,weatherlink.com 1.10,2013-03-04 17:41:00,
2013-03-04 12:56:00,66.2,48.0,30.20,WNW,286,0.0,-999.0,52,-99.99,,,0.00,weatherlink.com 1.10,2013-03-04 17:56:00,
2013-03-04 13:11:00,68.8,48.0,30.20,ESE,103,0.0,-999.0,47,-99.99,,,0.00,weatherlink.com 1.10,2013-03-04 18:11:00,
2013-03-04 13:26:00,67.3,47.0,30.19,WNW,291,11.0,-999.0,49,-99.99,,,0.00,weatherlink.com 1.10,2013-03-04 18:26:00,
2013-03-04 13:41:00,66.1,48.0,30.18,West,270,8.0,-999.0,52,-99.99,,,0.00,weatherlink.com 1.10,2013-03-04 18:41:00,
2013-03-04 13:56:00,66.1,49.0,30.18,West,271,4.0,-999.0,55,-99.99,,,0.00,weatherlink.com 1.10,2013-03-04 18:56:00,
2013-03-04 14:11:00,66.8,48.0,30.18,WNW,294,0.0,-999.0,52,-99.99,,,0.00,weatherlink.com 1.10,2013-03-04 19:11:00,
2013-03-04 14:26:00,66.7,48.0,30.17,NW,321,2.0,-999.0,51,-99.99,,,0.00,weatherlink.com 1.10,2013-03-04 19:26:00,
2013-03-04 14:41:00,67.0,48.0,30.17,WSW,254,1.0,-999.0,51,-99.99,,,0.00,weatherlink.com 1.10,2013-03-04 19:41:00,
2013-03-04 14:56:00,65.6,47.0,30.17,West,274,5.0,-999.0,52,-99.99,,,0.00,weatherlink.com 1.10,2013-03-04 19:56:00,
2013-03-04 15:11:00,65.5,48.0,30.17,West,265,4.0,-999.0,54,-99.99,,,0.00,weatherlink.com 1.10,2013-03-04 20:11:00,
2013-03-04 15:26:00,64.6,48.0,30.16,West,272,5.0,-999.0,55,-99.99,,,0.00,weatherlink.com 1.10,2013-03-04 20:26:00,
2013-03-04 15:41:00,64.8,49.0,30.16,WNW,299,0.0,-999.0,56,-99.99,,,0.00,weatherlink.com 1.10,2013-03-04 20:41:00,
2013-03-04 15:56:00,65.0,49.0,30.16,NW,323,5.0,-999.0,56,-99.99,,,0.00,weatherlink.com 1.10,2013-03-04 20:56:00,
2013-03-04 16:11:00,65.4,49.0,30.16,NW,307,8.0,-999.0,55,-99.99,,,0.00,weatherlink.com 1.10,2013-03-04 21:11:00,
2013-03-04 16:26:00,65.9,49.0,30.16,NW,308,11.0,-999.0,55,-99.99,,,0.00,weatherlink.com 1.10,2013-03-04 21:26:00,
2013-03-04 16:41:00,65.8,49.0,30.16,West,269,1.0,-999.0,54,-99.99,,,0.00,weatherlink.com 1.10,2013-03-04 21:41:00,
2013-03-04 16:56:00,65.4,49.0,30.16,West,275,4.0,-999.0,55,-99.99,,,0.00,weatherlink.com 1.10,2013-03-04 21:56:00,
2013-03-04 17:11:00,66.2,49.0,30.16,West,273,7.0,-999.0,55,-99.99,,,0.00,weatherlink.com 1.10,2013-03-04 22:11:00,
2013-03-04 17:26:00,65.9,50.0,30.16,NW,306,1.0,-999.0,57,-99.99,,,0.00,weatherlink.com 1.10,2013-03-04 22:26:00,
2013-03-04 17:41:00,65.6,50.0,30.16,NNW,340,0.0,-999.0,58,-99.99,,,0.00,weatherlink.com 1.10,2013-03-04 22:41:00,
2013-03-04 17:56:00,64.5,50.0,30.17,NW,309,2.0,-999.0,59,-99.99,,,0.00,weatherlink.com 1.10,2013-03-04 22:56:00,
2013-03-04 18:11:00,62.9,50.0,30.17,NW,317,4.0,-999.0,62,-99.99,,,0.00,weatherlink.com 1.10,2013-03-04 23:11:00,
2013-03-04 18:26:00,60.8,49.0,30.18,WNW,301,0.0,-999.0,66,-99.99,,,0.00,weatherlink.com 1.10,2013-03-04 23:26:00,
2013-03-04 18:41:00,59.2,49.0,30.18,WNW,300,0.0,-999.0,70,-99.99,,,0.00,weatherlink.com 1.10,2013-03-04 23:41:00,
2013-03-04 18:56:00,58.2,49.0,30.18,WNW,299,0.0,-999.0,72,-99.99,,,0.00,weatherlink.com 1.10,2013-03-04 23:56:00,
2013-03-04 19:11:00,57.5,49.0,30.18,WNW,299,0.0,-999.0,73,-99.99,,,0.00,weatherlink.com 1.10,2013-03-05 00:11:00,
2013-03-04 19:26:00,56.8,49.0,30.18,WNW,299,0.0,-999.0,76,-99.99,,,0.00,weatherlink.com 1.10,2013-03-05 00:26:00,
2013-03-04 19:41:00,56.0,49.0,30.19,WNW,299,0.0,-999.0,76,-99.99,,,0.00,weatherlink.com 1.10,2013-03-05 00:41:00,
2013-03-04 19:56:00,55.4,49.0,30.19,WNW,299,0.0,-999.0,78,-99.99,,,0.00,weatherlink.com 1.10,2013-03-05 00:56:00,
2013-03-04 20:11:00,54.9,49.0,30.19,WNW,299,0.0,-999.0,81,-99.99,,,0.00,weatherlink.com 1.10,2013-03-05 01:11:00,
2013-03-04 20:27:00,54.4,50.0,30.20,WNW,299,0.0,-999.0,84,-99.99,,,0.00,weatherlink.com 1.10,2013-03-05 01:27:00,
2013-03-04 20:42:00,53.6,49.0,30.21,WNW,299,0.0,-999.0,85,-99.99,,,0.00,weatherlink.com 1.10,2013-03-05 01:42:00,
2013-03-04 20:57:00,53.2,49.0,30.21,NW,314,0.0,-999.0,85,-99.99,,,0.00,weatherlink.com 1.10,2013-03-05 01:57:00,
2013-03-04 21:12:00,52.9,49.0,30.21,NW,314,0.0,-999.0,86,-99.99,,,0.00,weatherlink.com 1.10,2013-03-05 02:12:00,
2013-03-04 21:27:00,52.6,49.0,30.21,NW,314,0.0,-999.0,86,-99.99,,,0.00,weatherlink.com 1.10,2013-03-05 02:27:00,
2013-03-04 21:42:00,52.3,49.0,30.21,NW,314,0.0,-999.0,87,-99.99,,,0.00,weatherlink.com 1.10,2013-03-05 02:42:00,
2013-03-04 21:57:00,51.9,48.0,30.20,NW,314,0.0,-999.0,87,-99.99,,,0.00,weatherlink.com 1.10,2013-03-05 02:57:00,
2013-03-04 22:12:00,51.6,48.0,30.20,NW,314,0.0,-999.0,88,-99.99,,,0.00,weatherlink.com 1.10,2013-03-05 03:12:00,
2013-03-04 22:27:00,51.2,48.0,30.20,NW,314,0.0,-999.0,88,-99.99,,,0.00,weatherlink.com 1.10,2013-03-05 03:27:00,
2013-03-04 22:42:00,50.8,47.0,30.20,NW,314,0.0,-999.0,88,-99.99,,,0.00,weatherlink.com 1.10,2013-03-05 03:42:00,
2013-03-04 22:57:00,50.4,47.0,30.20,NW,314,0.0,-999.0,89,-99.99,,,0.00,weatherlink.com 1.10,2013-03-05 03:57:00,
2013-03-04 23:12:00,50.1,47.0,30.21,NW,314,0.0,-999.0,90,-99.99,,,0.00,weatherlink.com 1.10,2013-03-05 04:12:00,
2013-03-04 23:27:00,49.8,47.0,30.21,NW,314,0.0,-999.0,90,-99.99,,,0.00,weatherlink.com 1.10,2013-03-05 04:27:00,
2013-03-04 23:42:00,49.4,47.0,30.20,NW,314,0.0,-999.0,90,-99.99,,,0.00,weatherlink.com 1.10,2013-03-05 04:42:00,
2013-03-04 23:57:00,49.1,47.0,30.21,NW,314,0.0,-999.0,91,-99.99,,,0.00,weatherlink.com 1.10,2013-03-05 04:57:00,